When you browse on this site, cookies collect data to enhance your experience and personalize the content and advertising you see.
Visit our Privacy Policy to learn more. By continuing to use the site, you agree to this use of cookies and data.
  • In Hungary
  • List of Countries
  • For 7 days
  • Water Temperature
  • Weather Map
  • News
  • Weather Widgets
  • user-avatar
    Login

    Hourly Weather Malodvoryanka

    Today, 12 November, Tuesday

    Time Temperature Precipitation Wind Pressure Humidity
    00:00 +10°C° 0 mm 2 mps 757 mmHg 80%
    01:00 +10°C° 0 mm 2 mps 758 mmHg 81%
    02:00 +9°C° 0 mm 2 mps 758 mmHg 85%
    03:00 +9°C° 0 mm 2 mps 758 mmHg 86%
    04:00 +9°C° 0 mm 2 mps 758 mmHg 87%
    05:00 +8°C° 0 mm 2 mps 759 mmHg 89%
    06:00 +9°C° 0 mm 2 mps 759 mmHg 89%
    07:00 +9°C° 0 mm 2 mps 759 mmHg 89%
    08:00 +9°C° 0 mm 3 mps 760 mmHg 89%
    09:00 +11°C° 0 mm 3 mps 760 mmHg 82%
    10:00 +13°C° 0 mm 3 mps 760 mmHg 74%
    11:00 +16°C° 0 mm 3 mps 760 mmHg 66%
    12:00 +17°C° 0 mm 3 mps 760 mmHg 62%
    13:00 +17°C° 0 mm 3 mps 759 mmHg 58%
    14:00 +18°C° 0 mm 3 mps 759 mmHg 54%
    15:00 +17°C° 0 mm 3 mps 759 mmHg 60%
    16:00 +14°C° 0 mm 4 mps 759 mmHg 65%
    17:00 +13°C° 0 mm 4 mps 759 mmHg 71%
    18:00 +12°C° 0 mm 4 mps 759 mmHg 75%
    19:00 +12°C° 0 mm 4 mps 759 mmHg 79%
    20:00 +11°C° 0 mm 3 mps 759 mmHg 83%
    21:00 +11°C° 0 mm 3 mps 759 mmHg 84%
    22:00 +11°C° 0 mm 4 mps 759 mmHg 86%
    23:00 +11°C° 0 mm 4 mps 759 mmHg 88%

    Tomorrow, 13 November, Wednesday

    Time Temperature Precipitation Wind Pressure Humidity
    00:00 +10°C° 0 mm 4 mps 759 mmHg 88%
    01:00 +10°C° 0 mm 4 mps 759 mmHg 88%
    02:00 +9°C° 0 mm 5 mps 759 mmHg 88%
    03:00 +10°C° 0 mm 4 mps 759 mmHg 89%
    04:00 +10°C° 0 mm 4 mps 758 mmHg 89%
    05:00 +10°C° 0 mm 4 mps 758 mmHg 90%
    06:00 +10°C° 0 mm 4 mps 758 mmHg 88%
    07:00 +9°C° 0 mm 5 mps 758 mmHg 86%
    08:00 +10°C° 0 mm 5 mps 758 mmHg 83%
    09:00 +13°C° 0 mm 6 mps 758 mmHg 72%
    10:00 +15°C° 0 mm 6 mps 758 mmHg 60%
    11:00 +17°C° 0 mm 7 mps 758 mmHg 49%
    12:00 +17°C° 0 mm 7 mps 758 mmHg 46%
    13:00 +18°C° 0 mm 7 mps 757 mmHg 43%
    14:00 +20°C° 0 mm 7 mps 757 mmHg 40%
    15:00 +17°C° 0 mm 6 mps 757 mmHg 44%
    16:00 +16°C° 0 mm 6 mps 757 mmHg 48%
    17:00 +14°C° 0 mm 5 mps 757 mmHg 51%
    18:00 +14°C° 0 mm 5 mps 757 mmHg 55%
    19:00 +13°C° 0 mm 5 mps 757 mmHg 58%
    20:00 +12°C° 0 mm 5 mps 757 mmHg 61%
    21:00 +12°C° 0 mm 5 mps 757 mmHg 64%
    22:00 +10°C° 0 mm 5 mps 757 mmHg 68%
    23:00 +10°C° 0 mm 6 mps 757 mmHg 72%

    Day after tomorrow, 14 November, Thursday

    Time Temperature Precipitation Wind Pressure Humidity
    00:00 +9°C° 0 mm 6 mps 757 mmHg 74%
    01:00 +9°C° 0 mm 6 mps 757 mmHg 76%
    02:00 +8°C° 0 mm 6 mps 757 mmHg 78%
    03:00 +8°C° 0 mm 6 mps 757 mmHg 79%
    04:00 +8°C° 0 mm 6 mps 756 mmHg 81%
    05:00 +7°C° 0 mm 6 mps 756 mmHg 82%
    06:00 +7°C° 0 mm 6 mps 756 mmHg 81%
    07:00 +7°C° 0 mm 6 mps 756 mmHg 80%
    08:00 +8°C° 0 mm 6 mps 757 mmHg 79%
    09:00 +9°C° 0 mm 7 mps 756 mmHg 73%
    10:00 +10°C° 0 mm 8 mps 756 mmHg 66%
    11:00 +12°C° 0 mm 8 mps 756 mmHg 59%
    12:00 +12°C° 0 mm 8 mps 756 mmHg 55%
    13:00 +13°C° 0 mm 8 mps 756 mmHg 51%
    14:00 +15°C° 0 mm 8 mps 756 mmHg 47%
    15:00 +14°C° 0 mm 7 mps 756 mmHg 49%
    16:00 +11°C° 0 mm 6 mps 756 mmHg 52%
    17:00 +10°C° 0 mm 5 mps 756 mmHg 55%
    18:00 +9°C° 0 mm 5 mps 756 mmHg 55%
    19:00 +9°C° 0 mm 5 mps 756 mmHg 54%
    20:00 +8°C° 0 mm 5 mps 756 mmHg 54%
    21:00 +8°C° 0 mm 5 mps 756 mmHg 56%
    22:00 +7°C° 0 mm 6 mps 756 mmHg 57%
    23:00 +7°C° 0 mm 6 mps 757 mmHg 59%

    15 November, Friday

    Time Temperature Precipitation Wind Pressure Humidity
    00:00 +7°C° 0 mm 5 mps 757 mmHg 61%
    01:00 +6°C° 0 mm 5 mps 757 mmHg 63%
    02:00 +6°C° 0 mm 5 mps 757 mmHg 66%
    03:00 +5°C° 0 mm 5 mps 757 mmHg 67%
    04:00 +5°C° 0 mm 5 mps 757 mmHg 68%
    05:00 +5°C° 0 mm 5 mps 757 mmHg 69%
    06:00 +5°C° 0 mm 5 mps 757 mmHg 69%
    07:00 +4°C° 0 mm 6 mps 757 mmHg 68%
    08:00 +4°C° 0 mm 6 mps 757 mmHg 68%
    09:00 +5°C° 0 mm 6 mps 758 mmHg 64%
    10:00 +7°C° 0 mm 6 mps 758 mmHg 60%
    11:00 +8°C° 0 mm 5 mps 758 mmHg 56%
    12:00 +9°C° 0 mm 5 mps 758 mmHg 55%
    13:00 +10°C° 0 mm 5 mps 758 mmHg 53%
    14:00 +10°C° 0 mm 5 mps 758 mmHg 52%
    15:00 +9°C° 0 mm 5 mps 758 mmHg 56%
    16:00 +8°C° 0 mm 4 mps 758 mmHg 60%
    17:00 +8°C° 0 mm 3 mps 758 mmHg 64%
    18:00 +8°C° 0 mm 3 mps 759 mmHg 66%
    19:00 +7°C° 0 mm 3 mps 759 mmHg 67%
    20:00 +7°C° 0 mm 3 mps 759 mmHg 69%
    21:00 +7°C° 0 mm 3 mps 759 mmHg 70%
    22:00 +5°C° 0 mm 4 mps 760 mmHg 71%
    23:00 +5°C° 0 mm 4 mps 760 mmHg 72%

    16 November, Saturday

    Time Temperature Precipitation Wind Pressure Humidity
    00:00 +5°C° 0 mm 4 mps 760 mmHg 74%
    01:00 +4°C° 0 mm 4 mps 760 mmHg 75%
    02:00 +4°C° 0 mm 4 mps 760 mmHg 76%
    03:00 +4°C° 0 mm 4 mps 760 mmHg 79%
    04:00 +3°C° 0 mm 4 mps 760 mmHg 81%
    05:00 +3°C° 0 mm 4 mps 760 mmHg 84%
    06:00 +3°C° 0 mm 4 mps 761 mmHg 83%
    07:00 +3°C° 0 mm 4 mps 761 mmHg 82%
    08:00 +3°C° 0 mm 4 mps 761 mmHg 82%
    09:00 +3°C° 0 mm 5 mps 761 mmHg 75%
    10:00 +6°C° 0 mm 5 mps 761 mmHg 68%
    11:00 +7°C° 0 mm 5 mps 761 mmHg 61%
    12:00 +7°C° 0 mm 5 mps 761 mmHg 59%
    13:00 +8°C° 0 mm 5 mps 761 mmHg 57%
    14:00 +8°C° 0 mm 5 mps 761 mmHg 55%
    15:00 +7°C° 0 mm 5 mps 761 mmHg 58%
    16:00 +6°C° 0 mm 4 mps 761 mmHg 62%
    17:00 +5°C° 0 mm 3 mps 761 mmHg 66%
    18:00 +5°C° 0 mm 3 mps 761 mmHg 67%
    19:00 +5°C° 0 mm 4 mps 761 mmHg 68%
    20:00 +5°C° 0 mm 4 mps 761 mmHg 70%
    21:00 +4°C° 0 mm 4 mps 761 mmHg 70%
    22:00 +4°C° 0 mm 4 mps 761 mmHg 71%
    23:00 +3°C° 0 mm 5 mps 761 mmHg 72%

    17 November, Sunday

    Time Temperature Precipitation Wind Pressure Humidity
    00:00 +3°C° 0 mm 5 mps 762 mmHg 74%
    01:00 +3°C° 0 mm 5 mps 762 mmHg 75%
    02:00 +2°C° 0 mm 5 mps 762 mmHg 76%
    03:00 +2°C° 0 mm 5 mps 762 mmHg 78%
    04:00 +2°C° 0 mm 5 mps 762 mmHg 80%
    05:00 +1°C° 0 mm 5 mps 762 mmHg 82%
    06:00 +2°C° 0 mm 6 mps 762 mmHg 84%
    07:00 +2°C° 0 mm 6 mps 762 mmHg 85%
    08:00 +2°C° 0 mm 6 mps 762 mmHg 86%
    09:00 +3°C° 0 mm 6 mps 762 mmHg 81%
    10:00 +4°C° 0 mm 6 mps 762 mmHg 76%
    11:00 +7°C° 0 mm 6 mps 762 mmHg 72%
    12:00 +8°C° 0 mm 6 mps 762 mmHg 68%
    13:00 +9°C° 0 mm 6 mps 762 mmHg 65%
    14:00 +9°C° 0 mm 6 mps 762 mmHg 61%
    15:00 +8°C° 0 mm 5 mps 762 mmHg 65%
    16:00 +7°C° 0 mm 5 mps 762 mmHg 69%
    17:00 +6°C° 0 mm 5 mps 762 mmHg 72%
    18:00 +6°C° 0 mm 5 mps 762 mmHg 75%
    19:00 +5°C° 0 mm 5 mps 762 mmHg 77%
    20:00 +5°C° 0 mm 5 mps 762 mmHg 80%
    21:00 +5°C° 0 mm 4 mps 762 mmHg 81%
    22:00 +4°C° 0 mm 4 mps 762 mmHg 83%
    23:00 +4°C° 0 mm 4 mps 762 mmHg 84%
    Show more